OneWeb SL0425

operational
NORAD ID: 51628 Int'l Des: 2022-012 Owner: ONEWEBN Country: UK Constellation: oneweb
LEOCIRCULARPOLARONEWEB_TYPE

OneWeb SL0425について

説明を読み込み中...

リアルタイム位置

3D地球を読み込み中...

次回通過

高度履歴

Altitude vs Time

uPlot chart will show altitude changes over time

軌道要素

1 51628U 22012G 25260.89313940 .00000528 00000-0 14749-2 0 9993
2 51628 87.8741 90.5585 0001999 81.0292 279.1062 13.10375339173666
Epoch: Sep 17, 2025 • Age: 10 hours

現在のステータス

高度 1228.6 km
速度 7.25 km/s
衛星直下点 49.37°N, 161.6°E
打ち上げ日 Feb 10, 2022
運用期間 3.6 years
タイプ internet

技術仕様

分類 Payload
質量 148.00 kg
乾燥質量 140.00 kg
総質量 148.00 kg
長さ 1.30 m
直径 1.00 m
スパン 5.00 m
形状 Trapezoid+2 pan
製造者 ONEWUS
バスタイプ ARROW
フェーズステータス In Orbit
所有者/国 ONEWEBN/UK

大規模コンステレーション

Loading constellations...